Content
SEND FEEDBACK

Daily
Averages
Monthly
Summary
United States of America

ST. LOUIS - SAINT LOUIS UNIVERSITY, MISSOURI


Home > North America > United States > Missouri
Elevation: 580 feet     Latitude: 38 38N     Longitude: 090 14W

WEATHER
 
SELECT A DAY
Number of Records: 190,091;   Date Range: 1/1/95 - 11/27/14
 
SHARE

PRINT THIS DATA

[ ← Previous Day ]
WEATHER ALMANAC - APRIL 26, 2013
[ Next Day → ]
[ °C ]   °F
Weather ElementAverageHighLow
Temperature52 °F57 °F (11:53 am)45 °F (5:53 am)
Dewpoint42.6 °F46.9 °F (11:53 am)37 °F (1:53 am)
Humidity70.5 %83 % (11:53 pm)61 % (1:53 am)
Barometer30.33 in30.40 in (10:53 am)30.27 in (7:53 pm)
Wind Speed6 mph10.4 mph (11:53 am)
Wind Gust19.6 mph (2:53 pm)
Weather ElementAverage
Visibility10 mi
Wind DirectionSE (134.3 °)

Weather ElementTotal
Precipitation---
Heating Degree Days14 (Base 65)
Growing Degree Days1 (Base 50)
Averaged from 23 records on April 26, 2013
WEATHER CONDITIONS BREAKOUT
WIND DIRECTION BREAKOUT
WEATHER BY HOUR - APRIL 26, 2013
[ °C ]   °F
Local TimeTemperatureDewpointHumidityBarometerVisibilityWind DirectionWind SpeedGust SpeedPrecipitationEventsConditions
1:53 AM50.0 °F37.0 °F61 %30.32 in10.0 miSSE (160°)6.9 mphClear
2:53 AM48.0 °F37.0 °F66 %30.30 in10.0 miSE (130°)6.9 mph
3:53 AM48.0 °F37.9 °F68 %30.29 in10.0 miSE (140°)8.1 mphClear
4:53 AM48.0 °F37.0 °F66 %30.31 in10.0 miSouth (180°)3.5 mphClear
5:53 AM45.0 °F37.0 °F74 %30.32 in10.0 miCalmClear
6:53 AM46.9 °F37.9 °F71 %30.34 in10.0 miCalmClear
7:53 AM50.0 °F39.9 °F68 %30.36 in10.0 miSSE (160°)6.9 mphClear
8:53 AM52.0 °F41.0 °F66 %30.38 in10.0 miSSE (160°)5.8 mphMostly Cloudy
9:53 AM54.0 °F43.0 °F66 %30.38 in10.0 miSE (140°)6.9 mphOvercast
10:53 AM54.0 °F44.1 °F69 %30.40 in10.0 miSouth (180°)4.6 mph0.00 inRainLight Rain
11:53 AM57.0 °F46.9 °F69 %30.37 in10.0 miSSE (160°)10.4 mph16.1 mph0.00 inClear
12:53 PM54.0 °F46.0 °F75 %30.36 in10.0 miSSW (210°)10.4 mph18.4 mph0.00 inOvercast
1:53 PM55.9 °F44.1 °F64 %30.35 in10.0 miSouth (170°)10.4 mphOvercast
2:53 PM55.0 °F44.1 °F67 %30.34 in10.0 miSouth (180°)6.9 mph19.6 mphOvercast
3:53 PM55.9 °F46.0 °F69 %30.30 in10.0 miSSE (150°)9.2 mphOvercast
4:53 PM55.9 °F46.0 °F69 %30.31 in10.0 miSouth (170°)8.1 mphOvercast
5:53 PM55.0 °F45.0 °F69 %30.31 in10.0 miSSE (160°)8.1 mphScattered Clouds
6:53 PM53.1 °F45.0 °F74 %30.29 in10.0 miSSE (150°)8.1 mph0.00 inOvercast
7:53 PM53.1 °F45.0 °F74 %30.27 in10.0 miSSE (160°)6.9 mphOvercast
8:53 PM53.1 °F45.0 °F74 %30.34 in10.0 miCalmOvercast
9:53 PM52.0 °F46.0 °F80 %30.32 in10.0 miSouth (170°)4.6 mphOvercast
10:53 PM51.1 °F45.0 °F80 %30.32 in10.0 miCalmOvercast
11:53 PM50.0 °F45.0 °F83 %30.31 in10.0 miSSE (160°)5.8 mphOvercast
Hourly data recorded from KCPS, located miles away from St. Louis - Saint Louis University, Missouri







STORIES FROM OUR PARTNERS